Location: Helion Bumpstead
(52.0500°N, 0.4000°E)
Time: 09:23:39
(UTC+00:00)

Cosmos 2292 Rocket - Pass Details

Date: 15 November 2025
Orbit: 369 x 1243 km, 83.0° (Epoch: 14 December)

Event Time Altitude Azimuth Distance (km) Brightness Sun altitude
Exits shadow 04:18:02 25° 176° (S) 1,559 5.5 -27.5°
Maximum altitude 04:21:15 74° 95° (E) 915 4.4 -27.0°
Drops below altitude 10° 04:27:47 10° 13° (NNE) 2,858 7.1 -26.0°
Sets 04:30:40 0° 12° (NNE) 3,933 7.8 -25.6°
